Franklin, NC

11:40 PM EDT on April 30, 2017 (GMT -0400)
Franklin

Weather History for K1A5 - August, 2013

Change the Weather History Date:

Wednesday, August 21, 2013

  Actual Average (KTOC) Record (KTOC)
Temperature  
Mean Temperature 68 °F -  
Max Temperature 73 °F 87 °F 97 °F (2014)
Min Temperature 63 °F 66 °F 68 °F (2014)
Cooling Degree Days 3    
Growing Degree Days 18 (Base 50)    
Moisture  
Dew Point 65 °F    
Average Humidity 94    
Maximum Humidity 100    
Minimum Humidity 70    
Precipitation  
Precipitation 0.00 in - - ()
Sea Level Pressure  
Sea Level Pressure 30.28 in    
Wind  
Wind Speed 0 mph (North)    
Max Wind Speed 0 mph    
Max Gust Speed -    
Visibility 9 miles    
Events Rain    
Averages and records for this station are not official NWS values.
T = Trace of Precipitation, MM = Missing Value Source: NWS Daily Summary

Daily Weather History Graph

Daily Weather History Graph

Search for Another Location

Airport or City:

Trip Planner

Search our weather history database for the weather conditions in past years. The results will help you decide how hot, cold, wet, or windy it might be!

Date:

Astronomy

Aug. 21, 2013 Rise Set
Actual Time 6:58 AM EDT 8:14 PM EDT
Civil Twilight 6:31 AM EDT 8:41 PM EDT
Nautical Twilight 5:59 AM EDT 9:12 PM EDT
Astronomical Twilight 5:26 AM EDT 9:45 PM EDT
Moon 8:27 PM EDT (8/21) 7:33 AM EDT (8/21)
Length of Visible Light 14h 09m
Length of Day
13h 16m
Full, 100% of the Moon is Illuminated
Aug 21
Full
Aug 28
Last Quarter
Sep 5
New
Sep 12
First Quarter
Sep 19
Full

Hourly Weather History & Observations

Time (EDT) Temp. Dew Point Humidity Pressure Visibility Wind Dir Wind Speed Gust Speed Precip Events Conditions
12:15 AM 64.6 °F 64.0 °F 98% 30.29 in 7.0 mi Calm Calm - N/A   Overcast
12:35 AM 64.6 °F 64.2 °F 99% 30.29 in 7.0 mi Calm Calm - N/A   Mostly Cloudy
12:55 AM 64.4 °F 63.7 °F 98% 30.28 in 5.0 mi Calm Calm - N/A   Mostly Cloudy
1:15 AM 64.4 °F 63.7 °F 98% 30.28 in 7.0 mi Calm Calm - N/A   Mostly Cloudy
1:35 AM 64.6 °F 64.0 °F 98% 30.27 in 7.0 mi Calm Calm - N/A   Overcast
1:55 AM 64.0 °F 63.5 °F 98% 30.27 in 5.0 mi Calm Calm - N/A   Overcast
2:15 AM 63.9 °F 63.5 °F 99% 30.27 in 5.0 mi Calm Calm - N/A   Mostly Cloudy
2:35 AM 63.5 °F 63.0 °F 98% 30.27 in 7.0 mi Calm Calm - N/A   Overcast
2:55 AM 63.7 °F 63.1 °F 98% 30.26 in 7.0 mi Calm Calm - N/A   Overcast
3:15 AM 64.0 °F 63.5 °F 98% 30.25 in 7.0 mi Calm Calm - N/A   Overcast
3:35 AM 64.0 °F 63.5 °F 98% 30.25 in 7.0 mi Calm Calm - N/A   Overcast
3:55 AM 64.0 °F 63.5 °F 98% 30.25 in 7.0 mi Calm Calm - N/A   Overcast
4:15 AM 64.4 °F 63.9 °F 98% 30.26 in 7.0 mi Calm Calm - N/A   Overcast
4:35 AM 64.6 °F 64.4 °F 99% 30.26 in 10.0 mi Calm Calm - N/A   Overcast
4:55 AM 64.4 °F 63.9 °F 98% 30.26 in 5.0 mi Calm Calm - N/A   Overcast
5:15 AM 64.4 °F 63.9 °F 98% 30.26 in 7.0 mi Calm Calm - N/A   Overcast
5:35 AM 64.4 °F 64.2 °F 99% 30.26 in 10.0 mi Calm Calm - N/A   Overcast
5:55 AM 64.4 °F 64.4 °F 100% 30.26 in 10.0 mi Calm Calm - N/A   Overcast
6:15 AM 63.5 °F 63.3 °F 99% 30.26 in 7.0 mi Calm Calm - N/A   Mostly Cloudy
6:35 AM 63.5 °F 63.5 °F 100% 30.26 in 7.0 mi Calm Calm - N/A   Overcast
6:55 AM 63.5 °F 63.0 °F 98% 30.27 in 5.0 mi Calm Calm - N/A   Mostly Cloudy
7:15 AM 63.5 °F 62.8 °F 97% 30.28 in 5.0 mi Calm Calm - N/A   Mostly Cloudy
7:35 AM 63.5 °F 62.8 °F 97% 30.29 in 4.0 mi Calm Calm - N/A   Overcast
7:55 AM 63.7 °F 63.1 °F 98% 30.29 in 7.0 mi Calm Calm - N/A   Scattered Clouds
8:15 AM 63.9 °F 63.5 °F 99% 30.29 in 7.0 mi Calm Calm - N/A   Scattered Clouds
8:35 AM 64.4 °F 63.9 °F 98% 30.30 in 7.0 mi Calm Calm - N/A   Overcast
8:55 AM 64.4 °F 64.4 °F 100% 30.30 in 10.0 mi Calm Calm - N/A   Mostly Cloudy
9:15 AM 64.8 °F 64.8 °F 100% 30.30 in 10.0 mi Calm Calm - N/A   Scattered Clouds
9:35 AM 64.9 °F 64.9 °F 100% 30.31 in 10.0 mi Calm Calm - N/A   Scattered Clouds
9:55 AM 65.1 °F 65.1 °F 100% 30.31 in 10.0 mi Calm Calm - N/A Rain Light Rain
10:15 AM 65.5 °F 65.5 °F 100% 30.31 in 10.0 mi Calm Calm - N/A Rain Light Rain
10:35 AM 65.7 °F 65.7 °F 100% 30.32 in 10.0 mi Calm Calm - N/A   Light Drizzle
10:55 AM 65.8 °F 65.8 °F 100% 30.33 in 10.0 mi Calm Calm - N/A   Drizzle
11:15 AM 65.8 °F 65.8 °F 100% 30.33 in 5.0 mi Calm Calm - N/A Rain Rain
11:35 AM 66.2 °F 66.2 °F 100% 30.33 in 5.0 mi Calm Calm - N/A Rain Light Rain
11:55 AM 66.9 °F 66.9 °F 100% 30.33 in 10.0 mi Calm Calm - N/A Rain Light Rain
12:15 PM 66.7 °F 66.7 °F 100% 30.33 in 10.0 mi Calm Calm - N/A   Overcast
12:35 PM 67.3 °F 67.3 °F 100% 30.33 in 10.0 mi Calm Calm - N/A   Overcast
12:55 PM 67.5 °F 66.4 °F 96% 30.32 in 10.0 mi Calm Calm - N/A   Overcast
1:15 PM 68.0 °F 66.2 °F 94% 30.32 in 10.0 mi Calm Calm - N/A   Mostly Cloudy
1:35 PM 68.4 °F 66.6 °F 94% 30.31 in 10.0 mi Calm Calm - N/A Rain Light Rain
1:55 PM 68.7 °F 65.5 °F 89% 30.31 in 10.0 mi Calm Calm - N/A Rain Light Rain
2:15 PM 69.1 °F 64.8 °F 86% 30.31 in 10.0 mi Calm Calm - N/A Rain Light Rain
2:35 PM 70.0 °F 65.3 °F 85% 30.30 in 10.0 mi Calm Calm - N/A   Scattered Clouds
2:55 PM 70.2 °F 64.6 °F 82% 30.29 in 10.0 mi Calm Calm - N/A   Scattered Clouds
3:15 PM 70.2 °F 64.2 °F 81% 30.29 in 10.0 mi Calm Calm - N/A   Scattered Clouds
3:35 PM 70.7 °F 64.4 °F 80% 30.28 in 10.0 mi Calm Calm - N/A   Scattered Clouds
3:55 PM 70.9 °F 63.5 °F 77% 30.29 in 10.0 mi Calm Calm - N/A   Mostly Cloudy
4:15 PM 71.6 °F 64.2 °F 77% 30.27 in 10.0 mi Calm Calm - N/A   Mostly Cloudy
4:35 PM 71.6 °F 63.9 °F 76% 30.26 in 10.0 mi Calm Calm - N/A   Scattered Clouds
4:55 PM 72.3 °F 64.2 °F 76% 30.25 in 10.0 mi Calm Calm - N/A   Scattered Clouds
5:15 PM 73.6 °F 64.6 °F 73% 30.25 in 10.0 mi Calm Calm - N/A   Clear
5:35 PM 73.9 °F 63.5 °F 70% 30.23 in 10.0 mi Calm Calm - N/A   Scattered Clouds
5:55 PM 73.4 °F 63.7 °F 71% 30.24 in 10.0 mi Calm Calm - N/A   Scattered Clouds
6:15 PM 73.2 °F 64.6 °F 74% 30.25 in 10.0 mi Calm Calm - N/A   Scattered Clouds
6:35 PM 72.5 °F 64.4 °F 76% 30.24 in 10.0 mi Calm Calm - N/A   Scattered Clouds
6:55 PM 71.6 °F 66.2 °F 83% 30.23 in 10.0 mi Calm Calm - N/A   Clear
7:15 PM 70.7 °F 67.6 °F 90% 30.23 in 10.0 mi Calm Calm - N/A   Clear
7:35 PM 70.0 °F 68.0 °F 93% 30.23 in 10.0 mi Calm Calm - N/A   Clear
7:55 PM 69.4 °F 68.5 °F 97% 30.23 in 10.0 mi Calm Calm - N/A   Clear
8:15 PM 68.2 °F 67.8 °F 99% 30.24 in 10.0 mi Calm Calm - N/A   Clear
8:35 PM 66.9 °F 66.9 °F 100% 30.25 in 10.0 mi Calm Calm - N/A   Clear
8:55 PM 66.7 °F 66.4 °F 99% 30.25 in 10.0 mi Calm Calm - N/A   Scattered Clouds
9:15 PM 66.4 °F 66.2 °F 99% 30.25 in 10.0 mi Calm Calm - N/A   Scattered Clouds
9:35 PM 65.8 °F 65.5 °F 99% 30.27 in 10.0 mi Calm Calm - N/A   Mostly Cloudy
9:55 PM 65.8 °F 65.5 °F 99% 30.27 in 10.0 mi Calm Calm - N/A   Overcast
10:15 PM 66.0 °F 65.5 °F 98% 30.28 in 10.0 mi Calm Calm - N/A   Overcast
10:35 PM 65.7 °F 65.5 °F 99% 30.28 in 10.0 mi Calm Calm - N/A   Overcast
10:55 PM 65.3 °F 65.3 °F 100% 30.28 in 10.0 mi Calm Calm - N/A   Overcast
11:15 PM 64.9 °F 64.9 °F 100% 30.28 in 10.0 mi Calm Calm - N/A   Overcast
11:35 PM 65.1 °F 65.1 °F 100% 30.27 in 10.0 mi Calm Calm - N/A   Overcast
11:55 PM 65.3 °F 65.3 °F 100% 30.26 in 10.0 mi Calm Calm - N/A   Overcast